This demonstration page uses our WeatherBlox Daily Observations layout. Learn more.

Left ArrowRight Arrow

Hourly Observations for November 3, 2015

Temp ( °F °C ) Dew Point ( °F °C ) Humidity (%) Winds ( mph kmh ) Pressure ( in mb ) Visibility ( mi km ) Precip ( " mm )
12:53 am 00:53 Cloudy 38 3.3 33 0.6 83 83 ENE 9 15 29.82 1010 10 16 N/A
1:53 am 01:53 Cloudy 38 3.3 33 0.6 83 83 ENE 10 17 29.81 1010 10 16 N/A
2:53 am 02:53 Cloudy 38 3.3 34 1.1 86 86 E 9 15 29.81 1010 10 16 N/A
3:53 am 03:53 Mostly Cloudy 37 2.8 34 1.1 89 89 N N/A 29.82 1010 10 16 N/A
4:53 am 04:53 Cloudy 36 2.2 34 1.1 93 93 ENE 5 7 29.84 1011 10 16 N/A
5:53 am 05:53 Mostly Cloudy 37 2.8 34 1.1 89 89 N N/A 29.85 1011 10 16 N/A
6:53 am 06:53 Cloudy 35 1.7 33 0.6 93 93 N N/A 29.88 1012 10 16 N/A
7:53 am 07:53 Cloudy with Light Rain 37 2.8 35 1.7 93 93 ENE 3 6 29.89 1012 10 16 N/A
8:53 am 08:53 Cloudy with Light Rain 38 3.3 36 2.2 93 93 ENE 7 11 29.89 1012 10 16 N/A
9:53 am 09:53 Cloudy 41 5 39 3.9 93 93 ENE 8 13 29.88 1012 10 16 N/A
10:53 am 10:53 Cloudy with Light Rain 41 5 39 3.9 93 93 ENE 15 24 29.88 1012 10 16 N/A
11:32 am 11:32 Cloudy with Light Rain 41 5 37 3 87 87 E 14 22 29.85 1011 10 16 N/A
11:53 am 11:53 Cloudy 41 5 38 3.3 89 89 ENE 15 24 29.86 1011 10 16 N/A
12:15 pm 12:15 Cloudy 40 4.4 38 3.3 93 93 ENE 14 22 29.85 1011 10 16 N/A
12:50 pm 12:50 Cloudy with Light Rain 41 5 37 3 87 87 E 15 24 29.83 1010 10 16 N/A
12:51 pm 12:51 Cloudy with Light Rain 41 5 37 3 87 87 E 16 26 29.83 1010 10 16 N/A
1:24 pm 13:24 Cloudy with Light Rain 41 5 37 3 87 87 ENE 15 24 29.83 1010 10 16 N/A
1:37 pm 13:37 Cloudy with Light Rain 41 5 37 2.8 86 86 ENE 20 31 29.83 1010 10 16 N/A
1:53 pm 13:53 Cloudy with Light Rain 41 5 38 3.3 89 89 E 13 20 29.86 1011 10 16 N/A
2:10 pm 14:10 Cloudy with Light Rain 39 4 37 3 93 93 E 15 24 29.85 1011 10 16 N/A
2:21 pm 14:21 Cloudy with Light Rain 40 4.4 37 2.8 89 89 E 16 26 29.85 1011 10 16 N/A
2:53 pm 14:53 Cloudy with Light Rain 40 4.4 37 2.8 89 89 E 15 24 29.87 1011 10 16 0.01 0.25
3:53 pm 15:53 Cloudy with Light Rain 39 3.9 37 2.8 93 93 E 13 20 29.88 1012 10 16 N/A
4:53 pm 16:53 Cloudy with Light Rain 39 3.9 37 2.8 93 93 E 13 20 29.90 1013 10 16 0.02 0.51
5:14 pm 17:14 Cloudy with Light Rain 39 4 37 3 93 93 E 15 24 29.91 1013 10 16 N/A
5:21 pm 17:21 Cloudy with Light Rain 39 3.9 37 2.8 93 93 E 13 20 29.91 1013 10 16 0.01 0.25
5:34 pm 17:34 Cloudy with Light Rain 39 4 37 3 93 93 E 12 19 29.91 1013 10 16 N/A
5:43 pm 17:43 Cloudy with Light Rain 38 3.3 37 2.8 97 97 E 10 17 29.94 1014 10 16 0.02 0.51
5:53 pm 17:53 Cloudy with Light Rain 38 3.3 36 2.2 93 93 E 13 20 29.93 1013 10 16 0.03 0.76
6:53 pm 18:53 Cloudy with Light Rain 38 3.3 36 2.2 93 93 E 13 20 29.92 1013 10 16 0.04 1.02
7:11 pm 19:11 Cloudy with Light Rain 37 2.8 36 2.2 96 96 E 10 17 29.94 1014 10 16 N/A
7:53 pm 19:53 Cloudy with Light Rain 37 2.8 35 1.7 93 93 E 12 19 29.94 1014 10 16 0.03 0.76
8:01 pm 20:01 Cloudy with Light Rain 37 2.8 35 1.7 93 93 E 9 15 29.94 1014 10 16 N/A
8:23 pm 20:23 Cloudy with Light Rain 37 2.8 35 1.7 93 93 E 7 11 29.97 1015 10 16 0.01 0.25
8:35 pm 20:35 Cloudy with Light Rain 37 2.8 35 1.7 93 93 E 7 11 29.97 1015 10 16 0.01 0.25
8:45 pm 20:45 Cloudy with Light Rain 36 2.2 35 1.7 97 97 E 7 11 30.00 1016 10 16 0.02 0.51
8:53 pm 20:53 Cloudy with Light Rain 36 2.2 35 1.7 97 97 E 8 13 29.96 1015 9 14 0.03 0.76
11:11 pm 23:11 Cloudy with Light Snow 34 1.1 33 0.6 97 97 NNE 3 6 30.00 1016 9 14 N/A
11:37 pm 23:37 Cloudy with Light Wintry Mix 34 1.1 33 0.6 97 97 ENE 3 6 30.00 1016 9 14 N/A
11:53 pm 23:53 Cloudy with Light Wintry Mix 34 1.1 33 0.6 97 97 N N/A 29.98 1015 10 16 N/A

Powered by AerisWeather